Gastonia, NC

12:47 PM EDT on September 27, 2016 (GMT -0400)
Gastonia Municipal

Weather History for KAKH - August, 2014

Change the Weather History Date:

Monday, August 4, 2014

  Actual Average (KCLT) Record (KCLT)
Temperature  
Mean Temperature 75 °F 78 °F  
Max Temperature 87 °F 89 °F 99 °F (2015)
Min Temperature 66 °F 68 °F 58 °F (1912)
Degree Days  
Heating Degree Days 0 0  
Month to date heating degree days 0  
Since 1 June heating degree days 3  
Since 1 July heating degree days 0  
Cooling Degree Days 10 13  
Month to date cooling degree days 52  
Year to date cooling degree days 946  
Since 1 June cooling degree days 783  
Growing Degree Days 25 (Base 50)    
Moisture  
Dew Point 67 °F    
Average Humidity 83    
Maximum Humidity 97    
Minimum Humidity 51    
Precipitation  
Precipitation 0.00 in 0.15 in 2.59 in (1880)
Month to date precipitation 0.58  
Year to date precipitation 24.96  
Snow  
Snow 0.00 in 0.00 in 0.00 in ()
Month to date snowfall 0.0  
Since 1 June snowfall 0.0  
Since 1 July snowfall 0.0  
Snow Depth -    
Sea Level Pressure  
Sea Level Pressure 30.08 in    
Wind  
Wind Speed 2 mph (NNE)    
Max Wind Speed 10 mph    
Max Gust Speed -    
Visibility 6 miles    
Events Fog    
T = Trace of Precipitation, MM = Missing Value Source: NWS Daily Summary

Daily Weather History Graph

Daily Weather History Graph

Search for Another Location

Airport or City:

Trip Planner

Search our weather history database for the weather conditions in past years. The results will help you decide how hot, cold, wet, or windy it might be!

Date:

Astronomy

Aug. 04, 2014 Rise Set
Actual Time 6:35 AM EDT 8:24 PM EDT
Civil Twilight 6:08 AM EDT 8:52 PM EDT
Nautical Twilight 5:34 AM EDT 9:25 PM EDT
Astronomical Twilight 4:59 AM EDT 10:01 PM EDT
Moon 2:36 PM EDT (8/4) 12:39 AM EDT (8/4)
Length of Visible Light 14h 44m
Length of Day
13h 49m
First Quarter, 57% of the Moon is Illuminated
Aug 4
First Quarter
Aug 10
Full
Aug 17
Last Quarter
Aug 25
New
Sep 2
First Quarter

Hourly Weather History & Observations

Time (EDT) Temp. Heat Index Dew Point Humidity Pressure Visibility Wind Dir Wind Speed Gust Speed Precip Events Conditions
1:34 AM 68.0 °F - 66.0 °F 93% 30.09 in 1.5 mi Calm Calm - N/A   Clear
1:43 AM 66.9 °F - 66.0 °F 97% 30.08 in 0.8 mi Calm Calm - N/A   Clear
1:54 AM 68.0 °F - 66.0 °F 93% 30.07 in 1.5 mi Calm Calm - N/A   Clear
2:22 AM 66.9 °F - 64.9 °F 93% 30.09 in 1.8 mi Calm Calm - N/A   Clear
2:33 AM 66.0 °F - 64.9 °F 96% 30.09 in 3.0 mi Calm Calm - N/A   Clear
2:54 AM 69.1 °F - 66.9 °F 93% 30.07 in 6.0 mi NNW 3.5 mph - N/A   Scattered Clouds
2:59 AM 69.1 °F - 66.9 °F 93% 30.09 in 7.0 mi North 4.6 mph - N/A   Mostly Cloudy
3:45 AM 70.0 °F - 68.0 °F 93% 30.09 in 6.0 mi Calm Calm - N/A   Overcast
3:54 AM 70.0 °F - 68.0 °F 93% 30.07 in 7.0 mi Calm Calm - N/A   Overcast
4:54 AM 70.0 °F - 68.0 °F 93% 30.06 in 7.0 mi North 3.5 mph - N/A   Overcast
5:15 AM 69.1 °F - 66.9 °F 93% 30.07 in 6.0 mi Calm Calm - N/A   Mostly Cloudy
5:31 AM 69.1 °F - 66.9 °F 93% 30.07 in 6.0 mi Calm Calm - N/A   Scattered Clouds
5:54 AM 66.9 °F - 66.0 °F 97% 30.06 in 1.2 mi Calm Calm - N/A   Partly Cloudy
5:57 AM 66.9 °F - 64.9 °F 93% 30.08 in 0.8 mi Calm Calm - N/A   Mist
6:04 AM 68.0 °F - 66.0 °F 93% 30.08 in 1.2 mi Calm Calm - N/A   Partly Cloudy
6:13 AM 66.9 °F - 64.9 °F 93% 30.08 in 0.8 mi Calm Calm - N/A   Mist
6:38 AM 66.9 °F - 64.9 °F 93% 30.09 in 1.2 mi North 3.5 mph - N/A   Scattered Clouds
6:47 AM 66.9 °F - 66.0 °F 97% 30.09 in 3.0 mi North 4.6 mph - N/A   Partly Cloudy
6:54 AM 68.0 °F - 66.0 °F 93% 30.07 in 4.0 mi North 5.8 mph - N/A   Scattered Clouds
7:06 AM 68.0 °F - 66.9 °F 96% 30.10 in 4.0 mi NNE 5.8 mph - N/A   Mostly Cloudy
7:50 AM 69.8 °F - 66.2 °F 88% 30.11 in 2.0 mi NNE 4.6 mph - N/A   Overcast
7:54 AM 69.1 °F - 66.9 °F 93% 30.09 in 1.8 mi North 3.5 mph - N/A   Overcast
8:13 AM 70.0 °F - 68.0 °F 93% 30.11 in 0.5 mi North 3.5 mph - N/A Fog Fog
8:25 AM 70.0 °F - 68.0 °F 93% 30.11 in 1.0 mi North 3.5 mph - N/A   Overcast
8:43 AM 70.0 °F - 68.0 °F 93% 30.12 in 2.5 mi NE 4.6 mph - N/A   Overcast
8:54 AM 70.0 °F - 68.0 °F 93% 30.11 in 3.0 mi NE 4.6 mph - N/A   Overcast
9:26 AM 73.0 °F - 68.0 °F 84% 30.13 in 6.0 mi NNE 4.6 mph - N/A   Haze
9:54 AM 73.9 °F - 66.9 °F 79% 30.11 in 8.0 mi NE 4.6 mph - N/A   Mostly Cloudy
10:02 AM 75.0 °F - 66.9 °F 76% 30.12 in 9.0 mi ENE 5.8 mph - N/A   Scattered Clouds
10:44 AM 77.0 °F - 68.0 °F 74% 30.12 in 10.0 mi ENE 6.9 mph - N/A   Mostly Cloudy
10:54 AM 78.1 °F - 68.0 °F 71% 30.11 in 10.0 mi NNE 5.8 mph - N/A   Scattered Clouds
11:54 AM 80.1 °F 82.3 °F 66.9 °F 64% 30.09 in 10.0 mi NNE 8.1 mph - N/A   Clear
12:54 PM 82.0 °F 84.5 °F 66.9 °F 60% 30.08 in 10.0 mi North 10.4 mph - N/A   Partly Cloudy
1:54 PM 82.9 °F 85.0 °F 66.0 °F 56% 30.07 in 10.0 mi NNE 6.9 mph - N/A   Mostly Cloudy
2:54 PM 84.0 °F 86.3 °F 66.0 °F 55% 30.05 in 10.0 mi Variable 4.6 mph - N/A   Scattered Clouds
3:54 PM 84.9 °F 87.1 °F 66.0 °F 53% 30.03 in 10.0 mi ESE 5.8 mph - N/A   Scattered Clouds
4:54 PM 84.9 °F 86.6 °F 64.9 °F 51% 30.02 in 10.0 mi East 4.6 mph - N/A   Partly Cloudy
5:54 PM 84.0 °F 85.8 °F 64.9 °F 53% 30.02 in 10.0 mi ENE 6.9 mph - N/A   Clear
6:54 PM 82.9 °F 84.6 °F 64.9 °F 54% 30.01 in 10.0 mi East 4.6 mph - N/A   Clear
7:54 PM 78.1 °F - 68.0 °F 71% 30.03 in 10.0 mi Calm Calm - N/A   Clear
8:54 PM 75.9 °F - 66.9 °F 74% 30.04 in 10.0 mi Calm Calm - N/A   Clear
9:54 PM 73.0 °F - 68.0 °F 84% 30.05 in 10.0 mi Calm Calm - N/A   Clear
10:54 PM 71.1 °F - 66.9 °F 87% 30.06 in 10.0 mi Calm Calm - N/A   Clear
11:54 PM 71.1 °F - 66.0 °F 84% 30.06 in 10.0 mi Calm Calm - N/A   Clear